Simultaneous Nadir Overpasses (SNOs) Predictions

Prediction of SNOs between AQUA and GOES-15 Satellite Orbit:

Table of predicted SNOs for the next 14.0 days since TLE Epoch: 4/12/2019
Index Date Time (AQUA) AQUA Lat,Lon GOES-15 Lat,Lon Distance(km) Time Diff (sec)
1 04/14/2019 10:07:34 0.11,-127.91 0.06,-127.69 24.23 80
2 04/16/2019 09:55:21 -0.53,-124.95 0.06,-127.61 304.04 80
3 04/16/2019 22:16:44 -0.59,-130.13 -0.06,-127.58 289.81 80
4 04/18/2019 22:04:30 -0.01,-127.16 -0.06,-127.50 38.27 80
5 04/20/2019 21:52:17 0.63,-124.20 -0.06,-127.42 365.85 80
6 04/21/2019 10:13:33 0.45,-129.36 0.06,-127.41 221.63 80
7 04/23/2019 10:01:19 -0.14,-126.39 0.06,-127.32 105.51 80
8 04/23/2019 22:22:41 -0.97,-131.58 -0.05,-127.28 488.48 80
9 04/25/2019 09:49:05 -0.73,-123.42 0.06,-127.23 432.32 80
10 04/25/2019 22:10:28 -0.38,-128.61 -0.06,-127.19 161.83 80




NCC Satellite Simultaneous Nadir Overpasses (SNOs) Prediction Service
